FW6932 Weather Reports


Display with metric or nautical units.
time (UTC)temp
F
wind
direction
speed
MPH
gust
MPH
rain 1hr
in
rain 24hr
in
rain mn
in
humidity
%
barometer
mb
20260904043254 58 91 0.0 0.0 0.00 0.00 0.00 83 1022.4
20260904042215 58 91 0.0 0.0 0.00 0.00 0.00 82 1022.3
20260904041050 58 94 0.0 0.0 0.00 0.00 0.00 83 1022.4
20260904040053 59 116 0.0 1.0 0.00 0.00 0.00 80 1022.4
20260904035013 59 116 1.0 1.0 0.00 0.00 0.00 81 1022.6
20260904033851 59 342 1.0 1.0 0.00 0.00 0.00 80 1022.8
20260904032855 59 342 0.0 0.0 0.00 0.00 0.00 79 1022.5
20260904031813 59 341 1.0 2.0 0.00 0.00 0.00 79 1022.2
20260904030629 59 351 0.0 0.0 0.00 0.00 0.00 81 1022.5
20260904025714 60 351 0.0 0.0 0.00 0.00 0.00 79 1022.4
20260904024614 60 351 0.0 0.0 0.00 0.00 0.00 79 1022.4
20260904023429 60 351 0.0 0.0 0.00 0.00 0.00 77 1022.4
20260904022453 61 351 0.0 0.0 0.00 0.00 0.00 77 1022.3
20260904021434 61 343 0.0 0.0 0.00 0.00 0.00 76 1022.2
20260904020232 61 344 0.0 0.0 0.00 0.00 0.00 76 1022.4
20260904015253 61 343 0.0 0.0 0.00 0.00 0.00 78 1022.6
20260904014213 60 343 0.0 0.0 0.00 0.00 0.00 77 1022.5
20260904013029 61 344 0.0 0.0 0.00 0.00 0.00 75 1022.4
20260904012053 60 343 0.0 0.0 0.00 0.00 0.00 77 1022.6
20260904011014 60 342 0.0 0.0 0.00 0.01 0.00 77 1022.7
20260904005849 60 295 0.0 0.0 0.00 0.03 0.00 74 1022.7
20260904004914 60 350 0.0 0.0 0.00 0.03 0.00 77 1022.6
20260904003813 60 298 1.0 2.0 0.00 0.03 0.00 74 1022.6
20260904002629 60 293 2.0 2.0 0.00 0.03 0.00 75 1022.8
20260904001654 59 117 0.0 0.0 0.00 0.03 0.00 76 1023.0
20260904000612 59 342 0.0 0.0 0.00 0.03 0.00 77 1022.6
20260903235532 60 104 0.0 0.0 0.00 0.03 0.00 75 1022.7
20260903234557 59 351 0.0 0.0 0.00 0.03 0.00 76 1022.8
20260903233517 59 202 2.0 2.0 0.00 0.03 0.00 74 1022.8
20260903232553 59 334 1.0 1.0 0.00 0.03 0.00 75 1023.1
20260903231626 60 306 2.0 2.0 0.00 0.03 0.00 74 1022.9
20260903230524 61 276 2.0 2.0 0.00 0.03 0.00 73 1022.9
20260903225429 61 355 0.0 0.0 0.00 0.03 0.00 70 1022.9
20260903224456 62 355 0.0 0.0 0.00 0.03 0.00 70 1022.7
20260903223415 63 341 3.0 5.0 0.00 0.03 0.00 67 1022.8
20260903222231 60 349 0.0 0.0 0.00 0.03 0.00 72 1022.6
20260903221313 60 279 2.0 2.0 0.00 0.03 0.00 72 1022.6
20260903220213 61 274 3.0 3.0 0.00 0.03 0.00 70 1022.7
20260903215029 61 260 3.0 3.0 0.00 0.03 0.03 69 1022.5
20260903214055 61 279 4.0 5.0 0.00 0.03 0.03 71 1022.6
20260903213015 61 253 3.0 5.0 0.00 0.03 0.03 72 1022.6
20260903211849 61 245 3.0 3.0 0.00 0.03 0.03 70 1022.8
20260903210853 62 248 4.0 5.0 0.00 0.03 0.03 68 1022.4
20260903205812 62 277 2.0 3.0 0.00 0.03 0.03 68 1022.5
20260903204650 62 267 3.0 3.0 0.00 0.03 0.03 69 1022.4
20260903203733 62 238 0.0 0.0 0.00 0.03 0.03 68 1022.3
20260903202634 62 186 0.0 0.0 0.00 0.03 0.03 70 1022.5
20260903201419 63 244 3.0 3.0 0.00 0.03 0.03 68 1022.6
20260903200229 62 257 4.0 5.0 0.00 0.03 0.03 68 1022.3
20260903195253 62 258 7.0 9.0 0.00 0.03 0.03 71 1022.5
20260903194213 62 258 0.0 0.0 0.00 0.03 0.03 71 1022.4
20260903193049 62 343 2.0 3.0 0.00 0.03 0.03 70 1022.2
20260903192053 63 253 0.0 0.0 0.00 0.03 0.03 72 1022.1
20260903191013 64 339 0.0 0.0 0.00 0.03 0.03 68 1021.9
20260903185829 63 281 0.0 0.0 0.00 0.03 0.03 71 1022.1
20260903184855 62 126 0.0 0.0 0.00 0.03 0.03 72 1022.1
20260903183813 63 240 0.0 0.0 0.00 0.03 0.03 72 1022.0
20260903182649 64 257 0.0 0.0 0.00 0.03 0.03 71 1022.0
20260903181658 63 325 0.0 0.0 0.00 0.03 0.03 69 1022.0
20260903180613 63 119 0.0 0.0 0.00 0.03 0.03 71 1021.8
20260903175429 64 122 0.0 0.0 0.00 0.03 0.03 71 1021.8
20260903174453 66 122 0.0 0.0 0.00 0.03 0.03 67 1021.7
20260903173413 65 122 0.0 0.0 0.00 0.03 0.03 69 1022.0
20260903172249 67 170 2.0 2.0 0.00 0.03 0.03 65 1021.5
20260903171253 67 293 1.0 1.0 0.00 0.03 0.03 65 1021.6
20260903170214 67 332 1.0 1.0 0.00 0.03 0.03 65 1021.9
20260903165029 68 117 0.0 0.0 0.00 0.03 0.03 64 1021.7
20260903164053 69 243 2.0 2.0 0.00 0.03 0.03 62 1021.7
20260903163013 70 278 3.0 3.0 0.00 0.03 0.03 60 1021.8
20260903161849 72 302 1.0 1.0 0.00 0.03 0.03 56 1021.8
20260903160855 73 342 1.0 2.0 0.00 0.03 0.03 52 1021.6
20260903155814 74 337 2.0 3.0 0.00 0.03 0.03 51 1021.6
20260903154631 75 287 5.0 6.0 0.00 0.03 0.03 48 1021.7
20260903153654 75 344 1.0 2.0 0.00 0.03 0.03 49 1021.9
20260903152613 76 307 4.0 7.0 0.00 0.03 0.03 48 1021.8
20260903151534 75 7 4.0 5.0 0.00 0.03 0.03 51 1021.8
20260903150557 74 342 3.0 3.0 0.00 0.03 0.03 51 1022.0
20260903145537 75 283 4.0 5.0 0.00 0.03 0.03 50 1022.1
20260903144533 75 307 3.0 3.0 0.00 0.03 0.03 51 1021.9
20260903143626 74 350 3.0 5.0 0.00 0.03 0.03 51 1022.2
20260903142525 74 279 3.0 3.0 0.00 0.03 0.03 51 1022.1
20260903141430 74 16 0.0 1.0 0.00 0.03 0.03 50 1022.2
20260903140453 74 292 2.0 2.0 0.00 0.03 0.03 49 1022.2
20260903135414 74 281 3.0 3.0 0.00 0.03 0.03 50 1022.2
20260903134231 75 351 3.0 3.0 0.00 0.03 0.03 50 1022.2
20260903133253 75 303 3.0 3.0 0.00 0.03 0.03 49 1022.1
20260903132214 75 310 6.0 7.0 0.00 0.03 0.03 48 1022.5
20260903131031 75 321 11.0 14.0 0.00 0.03 0.03 47 1022.4
20260903130056 75 334 7.0 9.0 0.00 0.03 0.03 49 1022.5
20260903125015 75 1 5.0 7.0 0.00 0.03 0.03 50 1022.5
20260903123814 75 272 13.0 20.0 0.00 0.03 0.03 50 1022.7
20260903122630 75 346 4.0 6.0 0.00 0.03 0.03 51 1022.7
20260903121654 75 316 7.0 7.0 0.00 0.03 0.03 50 1022.9
20260903120614 75 332 9.0 11.0 0.00 0.03 0.03 50 1022.8
20260903115432 75 352 4.0 6.0 0.00 0.03 0.03 50 1022.6
20260903114514 74 314 3.0 5.0 0.00 0.03 0.03 52 1022.8
20260903113434 74 323 6.0 8.0 0.00 0.03 0.03 53 1022.8
20260903112230 74 277 7.0 8.0 0.00 0.03 0.03 51 1022.9
20260903111254 74 275 11.0 14.0 0.00 0.03 0.03 52 1022.8
20260903110229 74 247 8.0 9.0 0.00 0.03 0.03 52 1022.9
20260903105253 75 277 5.0 6.0 0.00 0.03 0.03 52 1023.0
20260903104213 76 334 3.0 3.0 0.00 0.03 0.03 51 1023.2
20260903103031 76 246 5.0 7.0 0.00 0.03 0.03 51 1023.1
20260903102053 75 256 7.0 8.0 0.00 0.03 0.03 52 1022.9
20260903101013 75 237 5.0 6.0 0.00 0.03 0.03 51 1023.2
20260903095829 73 276 4.0 6.0 0.00 0.03 0.03 55 1023.5
20260903094853 73 251 5.0 7.0 0.00 0.03 0.03 52 1023.5
20260903093816 76 333 3.0 3.0 0.00 0.03 0.03 50 1023.5
20260903092629 74 245 11.0 13.0 0.00 0.03 0.03 57 1023.7
20260903091715 75 2 1.0 1.0 0.00 0.03 0.03 60 1024.1
20260903090613 75 108 1.0 3.0 0.00 0.03 0.03 57 1024.0
20260903085429 73 68 3.0 5.0 0.00 0.03 0.03 63 1023.9
20260903084455 75 99 0.0 0.0 0.00 0.03 0.03 58 1024.0
20260903083413 72 334 2.0 2.0 0.00 0.03 0.03 64 1023.9
20260903082256 71 77 0.0 1.0 0.00 0.03 0.03 67 1024.0
20260903081030 71 119 5.0 6.0 0.00 0.03 0.03 66 1024.2
20260903080114 70 78 1.0 1.0 0.00 0.03 0.03 66 1023.9
20260903075014 69 100 4.0 5.0 0.00 0.03 0.03 69 1024.0
20260903073832 71 191 1.0 1.0 0.00 0.03 0.03 65 1024.0
20260903072854 69 52 1.0 1.0 0.00 0.03 0.03 67 1023.8
20260903071816 70 86 0.0 1.0 0.00 0.03 0.03 68 1023.7
20260903070630 68 4 0.0 1.0 0.00 0.03 0.03 68 1023.6
20260903065653 68 34 0.0 1.0 0.00 0.03 0.03 70 1023.7
20260903064615 66 348 1.0 1.0 0.00 0.03 0.03 70 1023.9
20260903063429 65 342 3.0 3.0 0.00 0.03 0.03 73 1023.9
20260903062454 65 3 2.0 2.0 0.00 0.03 0.03 74 1023.8
20260903061413 63 337 2.0 2.0 0.00 0.03 0.03 77 1023.9
20260903060229 61 315 5.0 6.0 0.00 0.03 0.03 79 1023.8
20260903055253 61 314 5.0 7.0 0.00 0.03 0.03 79 1023.8
20260903054253 61 290 7.0 9.0 0.00 0.03 0.03 78 1023.7
20260903053029 60 241 6.0 7.0 0.00 0.03 0.03 79 1023.7
20260903052053 60 334 6.0 7.0 0.00 0.03 0.03 79 1023.9
20260903051036 59 306 5.0 7.0 0.00 0.03 0.03 79 1023.5
20260903045829 57 269 5.0 6.0 0.00 0.03 0.03 83 1023.3
20260903044853 58 260 3.0 5.0 0.00 0.03 0.03 84 1023.3